GFSNW_925_thetae_003.txt.gz
Theta_e
299 299 299 299 301 303 304 303 308 304 306 308 305 311 308 310 312 313 314 312 312 312 311 313 312 309 307 307 309 313 310 313 314 310 309 310 310 311 311 313 311 312 309 311
299 299 298 299 301 303 304 306 311 306 306 311 311 310 311 312 315 315 315 314 313 312 312 313 310 309 308 308 309 310 311 315 312 309 312 311 313 311 311 311 311 312 311 310
299 298 298 299 301 303 306 307 311 310 309 310 308 310 311 312 312 314 314 314 312 314 315 311 312 310 310 308 310 311 311 314 311 314 314 314 315 313 312 312 314 311 311 310
299 298 298 299 300 302 306 309 308 306 310 311 309 310 311 312 313 313 313 315 315 315 318 316 315 310 310 309 310 312 313 313 314 314 313 313 315 315 313 314 312 311 310 309
299 297 298 298 299 303 305 307 310 306 308 310 308 309 309 310 312 315 316 314 315 316 317 313 313 312 311 312 310 314 314 316 314 315 315 314 315 316 313 313 312 311 310 310
299 297 298 298 300 303 303 303 305 309 310 310 308 307 310 311 312 312 313 314 315 316 315 314 313 313 312 313 313 314 314 313 315 316 317 318 316 316 315 314 313 311 312 311
299 298 298 299 300 302 303 303 304 311 312 310 310 308 309 312 313 315 314 313 316 315 313 314 314 313 312 311 311 312 316 312 314 317 317 323 321 316 314 314 312 312 312 311
298 298 298 299 300 301 302 302 304 310 311 311 310 310 308 309 312 314 314 313 312 314 315 316 318 317 315 313 312 312 313 315 318 319 323 321 316 318 314 315 315 312 313 312
298 298 298 298 299 300 301 302 304 307 312 311 310 311 311 314 314 315 315 312 311 314 316 318 321 314 313 313 314 310 314 314 317 319 322 324 312 316 312 315 320 313 312 313
298 298 298 299 298 299 301 302 302 304 311 311 309 310 312 313 313 314 312 312 312 313 317 318 321 317 312 315 318 316 317 316 318 319 321 316 312 312 314 321 319 307 312 313
298 298 298 299 298 299 300 300 300 300 308 311 311 311 311 310 310 315 313 315 314 315 316 319 319 316 313 314 311 315 315 316 315 315 318 315 310 313 317 312 307 307 309 312
297 297 298 298 297 298 300 300 299 298 304 309 309 310 310 311 311 313 312 314 314 315 317 316 318 319 312 311 315 312 317 313 315 314 313 309 308 309 308 306 306 306 307 305
296 296 296 296 296 297 299 300 299 297 306 309 308 309 310 311 312 312 314 312 312 314 314 316 314 318 312 314 313 314 313 311 316 315 313 311 309 307 306 302 304 303 301 301
295 295 295 296 296 296 298 299 299 297 298 312 308 309 309 310 311 311 311 312 312 312 313 315 317 315 309 312 311 313 312 312 314 313 311 309 308 307 304 301 300 300 299 299
295 295 295 295 296 296 297 297 298 298 299 311 311 307 308 309 309 310 310 310 312 313 315 315 318 312 310 306 307 310 309 314 315 317 312 311 309 305 301 301 300 300 299 298
295 294 294 295 296 296 297 300 300 299 300 308 313 309 309 309 309 310 309 310 311 312 314 315 317 313 313 311 313 313 308 307 308 313 306 304 302 301 301 299 299 298 298 297
295 295 295 295 296 297 297 300 300 298 297 307 309 307 310 310 310 310 311 311 312 312 313 314 317 317 316 318 318 315 311 309 305 304 303 306 303 305 299 298 297 296 295 295
294 294 295 296 298 298 298 299 298 299 301 307 310 309 310 310 313 314 311 314 313 314 315 314 316 313 314 319 315 312 307 304 304 301 302 303 299 298 297 296 297 296 295 294
294 294 295 300 299 299 299 298 301 302 303 310 309 310 308 309 312 311 313 312 316 313 315 316 313 315 317 316 313 310 304 305 305 298 298 299 299 298 297 297 297 296 295 294
293 294 295 300 296 295 297 303 305 304 307 308 312 304 311 308 311 313 313 310 314 313 314 309 312 316 313 312 309 308 304 301 298 300 297 296 297 298 297 297 297 296 295 293
293 293 295 295 295 299 303 305 309 308 309 310 309 305 310 306 311 314 307 309 307 314 310 314 314 312 310 303 306 306 302 299 300 302 300 301 301 299 296 295 294 293 293 291
294 295 295 295 296 298 301 305 306 309 305 308 311 308 304 305 303 308 308 308 307 313 301 310 313 306 301 300 303 304 299 298 299 299 298 298 298 296 295 293 292 291 289 287
294 294 291 294 297 302 305 308 309 309 306 305 305 307 305 302 301 301 303 311 311 299 308 309 304 300 299 299 299 298 297 298 296 295 294 294 292 293 292 290 289 289 287 286
293 293 291 298 302 301 303 302 302 301 300 303 304 304 304 302 299 302 311 307 305 307 308 302 297 296 297 296 296 297 297 295 293 292 292 292 291 289 289 289 288 288 286 285
293 293 291 297 299 297 298 297 298 299 300 302 303 302 302 297 302 301 306 307 307 307 304 298 293 289 292 296 296 295 293 291 290 290 290 289 289 289 287 287 287 286 285 285
293 292 290 296 291 286 297 297 298 299 302 299 301 305 306 304 304 304 306 306 306 304 297 292 288 294 295 295 293 292 291 291 290 290 290 289 289 288 286 286 286 286 285 284
292 294 295 295 292 292 295 295 297 299 301 306 304 308 310 297 298 301 299 302 303 301 291 285 288 287 291 291 291 290 290 290 290 289 290 288 287 287 286 284 283 285 284 284

GFSNW_925_thetae_006.txt.gz
Theta_e
300 300 298 300 300 301 303 303 306 306 305 307 306 312 309 312 312 314 314 313 313 313 313 314 314 314 311 309 312 314 312 313 315 314 311 310 311 312 312 316 315 316 313 313
300 300 298 299 300 302 304 305 306 305 306 312 312 310 311 314 315 316 315 315 313 312 313 315 313 312 310 310 312 314 313 316 315 316 314 312 313 312 312 314 314 316 315 312
299 299 298 300 301 302 305 304 307 308 306 310 311 312 313 315 314 316 315 314 314 314 314 312 314 313 312 310 311 311 312 314 316 316 317 315 318 314 314 314 316 314 315 313
300 299 298 299 300 302 303 306 309 308 310 311 311 312 313 314 315 315 315 315 314 314 315 315 315 313 312 311 311 312 313 316 315 313 313 314 316 316 317 315 314 315 314 312
299 299 299 299 300 301 303 304 309 309 311 310 311 312 312 313 315 314 315 316 315 314 315 315 316 315 314 314 313 313 314 316 316 315 315 315 317 317 317 317 315 314 313 314
299 299 298 299 300 301 303 302 304 310 309 311 311 312 311 312 313 313 314 314 315 315 315 314 314 312 312 313 314 314 314 316 316 317 316 317 321 319 318 316 315 314 314 313
299 299 298 299 299 301 301 303 304 311 313 311 311 310 311 311 312 316 313 312 315 315 314 314 314 315 315 315 315 314 315 315 314 318 318 326 322 315 316 317 316 314 313 312
299 299 298 299 299 300 301 302 304 308 313 311 310 311 310 313 314 314 314 313 313 313 315 317 318 318 316 316 316 316 315 316 320 322 323 320 319 317 319 317 317 314 315 313
298 298 298 299 298 299 300 302 301 305 311 312 310 312 310 312 313 315 314 313 312 314 316 317 320 319 316 317 316 314 315 315 319 320 322 325 318 315 313 314 322 313 312 313
298 298 298 299 297 298 300 300 299 302 308 312 310 312 314 315 315 315 313 313 313 314 317 319 319 320 314 318 318 318 316 316 318 320 321 320 315 312 316 321 319 312 312 313
296 296 296 296 297 297 299 300 300 299 303 304 311 311 313 313 314 315 314 315 315 316 316 316 317 318 317 317 316 318 318 320 318 319 319 323 313 315 319 316 312 310 312 314
295 295 295 296 296 297 298 299 299 298 300 306 309 310 310 311 312 314 314 315 314 315 316 316 316 317 317 317 320 314 320 318 320 319 320 314 313 315 313 310 310 310 311 311
295 295 295 295 295 296 296 298 299 297 300 309 310 312 310 311 311 312 316 312 314 314 314 316 316 319 317 320 319 317 316 314 320 319 318 315 314 312 310 307 308 306 308 306
296 295 295 295 295 296 296 297 298 297 298 306 311 308 309 309 310 311 311 313 312 313 313 314 315 318 315 319 316 318 318 315 319 319 318 316 313 311 308 305 304 304 304 303
296 296 296 295 296 296 296 296 297 298 299 306 312 309 308 308 309 310 311 312 313 314 315 315 315 316 312 314 313 317 315 319 320 319 316 316 314 308 305 305 304 302 301 300
296 296 295 295 295 296 296 299 299 299 298 301 312 310 308 308 309 310 311 311 312 313 314 315 315 315 314 320 321 317 314 313 314 318 310 309 307 305 304 304 302 301 300 298
296 295 295 295 296 296 296 299 299 298 297 302 311 310 311 310 310 311 310 311 313 313 314 314 314 316 315 319 320 318 316 314 312 309 308 309 306 308 303 302 300 299 298 297
295 295 294 296 297 297 297 297 296 297 300 303 311 311 311 310 313 314 312 314 313 313 314 314 316 315 315 320 319 318 313 310 309 307 305 306 304 302 301 299 299 299 297 296
294 294 296 298 298 299 299 298 298 299 300 309 310 312 313 311 313 312 313 313 317 313 316 315 314 317 318 318 318 317 314 312 311 303 303 304 304 302 300 300 300 299 297 295
293 293 296 299 296 295 297 299 302 303 303 306 312 307 313 311 312 315 314 312 315 315 314 309 313 316 316 316 315 315 312 308 303 304 302 301 300 300 300 301 300 299 297 295
293 295 295 294 296 298 302 302 305 306 309 310 311 309 311 309 313 315 311 313 309 315 313 314 316 317 314 308 306 307 310 306 304 304 305 304 303 302 301 299 298 297 295 294
293 294 295 295 296 299 303 305 304 308 310 309 311 310 308 308 307 313 310 312 310 315 305 311 314 314 307 303 304 304 306 304 303 302 302 303 302 300 299 297 296 295 292 290
293 294 294 296 299 304 305 305 307 309 305 304 306 309 308 306 306 307 309 313 313 304 310 311 312 309 304 301 301 301 301 301 300 298 299 299 298 297 296 295 293 291 290 289
294 294 295 299 300 301 302 302 302 302 300 303 305 305 307 304 308 307 311 309 307 310 311 311 309 304 300 298 299 300 300 299 298 297 296 295 295 294 293 293 291 290 288 287
294 294 297 298 297 297 299 297 299 299 300 302 304 303 305 305 307 305 308 309 309 309 311 309 305 299 296 299 298 299 298 296 295 294 294 293 292 292 291 290 290 289 287 287
294 293 295 296 295 294 295 297 297 298 300 299 301 306 308 310 307 308 309 308 310 311 307 305 298 298 298 298 297 296 295 295 294 293 293 292 291 291 289 288 288 287 286 285
293 295 295 296 294 293 294 294 296 297 299 304 303 308 312 301 306 306 305 307 309 302 302 295 294 295 296 295 294 293 293 293 293 292 292 291 289 288 288 287 286 285 284 283

GFSNW_925_thetae_009.txt.gz
Theta_e
300 301 299 301 302 304 304 303 307 306 306 307 309 314 311 312 312 314 314 313 313 314 313 315 315 315 313 312 313 314 313 314 316 314 312 311 312 313 312 317 316 316 316 315
300 300 299 301 302 304 305 306 306 305 306 312 313 310 312 313 314 316 315 315 314 313 314 315 314 314 312 311 313 314 313 315 316 319 315 313 313 313 313 314 316 318 318 315
300 300 299 300 302 304 305 302 309 308 307 310 313 313 315 316 315 316 315 315 313 314 314 314 315 314 313 311 312 313 313 314 317 317 320 315 317 315 315 316 319 317 316 314
300 299 299 300 301 303 303 304 309 309 312 311 313 313 314 316 316 315 314 314 314 314 315 314 314 314 314 312 313 312 313 318 316 314 314 315 316 316 316 316 318 318 316 314
299 300 299 299 300 302 303 305 308 309 311 311 312 312 314 315 315 314 314 315 314 314 314 315 316 315 314 314 313 313 314 317 316 315 315 316 318 317 319 319 318 318 317 317
299 299 299 299 300 302 303 303 304 308 310 311 312 313 313 314 314 315 315 315 315 316 315 315 314 314 313 314 314 314 315 316 316 317 316 316 323 321 320 319 317 317 319 316
299 298 299 299 299 301 302 302 304 310 313 311 311 311 312 312 314 316 314 314 315 316 314 315 315 314 315 314 314 313 316 314 314 319 318 328 321 318 318 319 318 317 316 316
298 298 299 299 298 300 301 301 303 307 313 312 311 311 313 312 313 314 315 314 313 314 315 317 317 318 317 316 316 316 314 316 318 321 319 318 321 318 321 320 320 315 315 315
296 297 297 297 297 298 301 301 299 303 310 313 311 312 312 314 314 314 314 314 314 315 317 317 320 322 317 318 317 315 316 315 317 318 321 323 321 317 315 316 322 315 315 316
296 296 295 296 297 297 299 302 299 302 307 311 312 312 313 312 313 316 315 314 314 314 317 318 322 321 316 319 319 317 318 318 317 317 321 319 318 315 317 323 320 314 314 315
296 296 295 296 296 296 297 300 300 299 302 304 309 311 313 315 315 317 315 316 315 316 316 318 319 321 318 318 317 318 318 318 318 317 319 321 315 317 320 318 315 313 314 314
297 296 296 295 296 296 296 297 299 300 299 303 304 307 311 312 314 314 314 317 315 315 315 316 316 319 318 318 319 316 320 318 320 319 321 318 317 316 315 314 313 313 312 316
297 297 296 296 295 295 296 297 297 299 300 305 309 312 312 311 312 313 316 315 314 315 315 315 316 319 317 321 319 319 317 316 319 320 320 319 318 316 313 310 310 309 310 311
297 296 296 295 296 295 296 297 297 298 297 304 311 309 311 310 311 311 312 314 313 313 314 314 315 316 317 318 318 319 319 317 319 320 319 319 316 313 310 308 307 309 308 307
296 296 296 296 296 295 296 296 297 297 299 306 309 309 309 309 311 312 312 313 314 315 315 315 316 314 316 316 317 318 317 319 321 320 318 318 316 310 308 308 306 305 304 303
296 296 296 296 295 295 296 298 299 299 298 301 311 310 310 309 310 311 312 313 313 313 315 315 315 314 315 318 319 317 316 316 316 318 314 312 310 308 307 306 304 303 302 300
296 295 295 295 295 295 296 297 298 297 298 301 308 313 312 311 310 311 312 311 313 313 314 314 315 315 316 317 317 317 317 317 315 314 312 313 309 310 305 304 302 301 300 299
295 295 295 296 297 296 296 296 296 296 299 301 310 313 313 310 313 314 312 313 313 314 315 314 314 315 315 318 316 316 316 316 315 313 310 309 308 305 304 301 300 300 299 298
295 294 297 298 298 298 298 298 296 297 299 304 311 313 314 311 313 313 313 314 316 314 317 316 314 316 318 317 317 318 318 315 315 309 307 306 306 304 302 302 301 300 299 297
292 295 298 299 297 296 297 298 301 300 302 303 311 310 313 312 314 315 316 315 316 318 316 311 314 316 315 315 315 315 316 314 307 306 305 304 304 303 303 303 302 301 299 296
295 296 296 296 296 299 300 301 303 304 307 308 311 311 313 311 314 316 313 313 312 317 315 314 317 317 316 311 308 308 309 312 308 309 308 305 305 304 303 303 302 299 297 295
294 294 294 295 297 299 302 305 303 307 311 310 312 311 311 311 310 314 312 314 312 316 308 312 315 315 311 307 305 304 305 309 308 306 305 306 305 304 303 301 299 297 295 292
295 295 295 297 301 305 307 307 306 308 304 303 305 311 310 309 310 311 311 314 314 307 312 313 314 313 308 303 301 303 302 304 304 302 303 304 303 302 299 298 297 294 292 291
294 295 300 302 303 302 302 303 302 302 301 302 304 307 309 307 311 311 313 310 309 312 311 313 315 309 303 301 301 302 302 302 301 301 300 299 299 298 298 296 294 293 291 291
295 295 301 300 298 299 299 299 299 299 300 301 304 305 307 307 309 309 310 310 311 310 313 314 308 302 300 301 301 301 300 299 298 297 297 297 296 296 294 293 292 291 290 290
295 294 296 296 297 299 298 298 298 298 298 299 301 306 309 310 311 309 310 310 311 314 306 304 301 299 299 299 299 298 298 297 297 297 296 295 295 294 292 291 290 290 289 288
293 296 296 297 296 297 297 296 297 296 299 304 303 308 311 304 309 309 309 310 307 301 300 299 297 296 296 296 296 295 295 296 295 294 294 294 292 291 291 290 288 287 286 286

GFSNW_925_thetae_012.txt.gz
Theta_e
300 300 300 300 301 303 305 303 308 305 305 308 308 312 309 313 313 315 314 313 313 312 312 314 314 315 314 312 313 314 312 314 312 314 311 311 312 312 312 315 310 313 314 314
300 300 300 300 302 305 305 306 307 305 307 311 312 310 312 313 315 316 315 314 314 312 313 315 314 315 311 312 313 313 312 314 312 315 315 312 314 312 312 312 313 315 316 314
300 300 300 300 302 304 304 306 307 307 307 309 311 312 315 316 315 315 314 314 313 314 314 314 314 315 312 311 313 313 313 315 312 313 314 314 314 315 314 315 318 315 316 314
299 300 300 299 300 303 304 306 309 309 313 313 312 313 315 316 316 315 314 314 314 314 315 314 315 313 313 312 313 312 313 313 312 314 313 313 313 314 315 317 317 318 316 317
299 299 300 298 299 303 304 308 308 308 311 312 312 314 316 315 315 315 314 315 314 313 314 315 314 314 313 314 312 312 312 315 314 312 313 313 314 314 315 317 318 320 320 319
298 299 299 298 298 301 303 303 305 308 310 312 313 314 313 315 315 315 315 315 315 316 316 315 314 314 313 314 314 313 315 316 315 312 314 314 319 319 320 319 318 319 320 318
297 297 297 298 298 299 301 301 303 309 312 312 311 312 312 314 315 315 314 314 316 316 314 314 314 314 314 315 313 313 315 314 314 316 314 319 319 317 318 320 319 317 316 316
297 296 296 297 298 298 299 300 301 306 313 312 311 312 313 312 312 315 315 314 314 314 315 317 317 318 317 316 315 314 314 314 317 318 314 315 317 318 320 320 319 315 316 316
297 296 296 296 297 297 296 301 299 302 308 312 313 312 312 314 313 314 315 314 313 314 317 317 319 321 318 318 317 315 315 314 317 318 319 319 319 317 315 316 321 313 315 317
297 297 296 296 296 296 297 299 300 301 307 309 309 312 313 312 313 315 315 314 314 314 316 318 320 319 317 318 319 317 318 318 318 318 319 317 315 314 316 322 318 313 312 315
297 297 297 296 296 296 296 297 300 299 302 303 306 309 313 315 315 316 315 315 314 315 316 316 318 319 318 317 316 316 316 317 318 317 319 317 315 316 320 316 314 313 312 314
297 297 297 297 296 296 296 296 296 297 299 302 302 303 306 308 312 314 314 316 315 316 316 315 316 317 317 317 318 315 318 315 318 315 316 313 316 315 315 312 311 311 311 310
296 297 297 297 296 296 295 296 296 297 300 301 305 310 310 311 312 313 316 315 314 314 314 315 315 317 317 319 317 318 315 314 317 318 318 317 316 313 310 308 308 309 310 308
296 296 296 296 296 297 296 296 296 296 298 302 309 309 310 311 311 312 313 313 313 313 313 314 314 315 314 318 316 317 317 316 316 317 316 316 312 310 308 306 307 308 307 306
296 296 296 296 296 297 295 295 295 296 298 303 306 305 309 310 311 312 312 313 314 314 315 315 314 313 313 313 314 315 314 316 318 319 316 316 311 308 308 306 305 304 302 302
296 296 297 296 296 296 295 296 298 297 297 300 307 309 310 310 311 312 312 312 313 314 314 314 314 313 313 316 316 313 312 313 313 314 312 310 308 306 305 304 302 301 300 299
296 296 296 295 296 295 295 297 296 297 297 300 305 312 311 310 310 311 312 311 312 313 313 314 313 314 314 316 316 314 313 312 313 314 310 311 308 307 303 302 300 300 298 298
295 295 295 297 297 296 296 294 295 296 296 300 305 312 312 310 313 314 311 313 313 313 314 313 314 314 314 317 314 312 312 312 312 313 310 308 305 302 301 299 298 297 296 296
295 294 296 297 297 297 297 297 296 295 297 301 307 311 312 310 313 312 311 313 316 313 315 314 313 315 316 314 314 314 315 315 314 307 306 305 304 302 300 299 299 297 296 294
295 296 298 298 296 296 297 297 299 297 299 301 307 310 313 311 313 313 315 314 314 314 314 311 313 315 313 313 312 310 310 311 305 306 302 301 300 301 301 300 299 298 296 294
295 295 295 295 296 299 299 300 301 302 305 306 309 310 312 310 312 314 311 311 310 315 311 312 312 316 313 307 306 304 304 305 306 307 307 303 303 302 302 301 300 297 295 293
294 294 294 296 297 298 301 304 302 304 309 308 311 309 309 309 308 311 311 310 309 314 307 311 314 311 306 302 301 301 302 303 306 306 305 304 303 302 301 300 298 296 293 290
295 295 293 297 300 303 305 306 306 307 302 302 303 309 309 307 307 308 309 311 311 304 310 311 306 304 301 299 300 300 301 302 302 302 303 304 303 302 301 298 296 293 291 290
294 294 296 299 302 301 303 302 302 300 300 301 303 306 308 306 307 309 311 310 307 309 310 307 304 300 299 299 299 299 300 299 300 299 299 300 299 298 297 296 293 292 290 290
294 293 298 299 299 299 299 297 299 298 299 300 304 304 306 305 307 308 308 309 309 309 306 305 300 296 296 296 296 297 297 298 298 297 297 297 296 296 294 293 292 291 290 289
293 293 295 297 297 297 294 295 299 297 298 298 300 305 307 309 308 308 309 309 309 305 299 295 296 295 295 294 294 295 294 295 296 296 296 295 294 293 292 291 291 290 289 288
293 295 295 297 297 297 294 295 296 295 298 303 302 307 309 303 308 307 307 308 303 296 293 292 292 293 293 292 292 293 293 293 294 294 295 294 293 292 290 289 289 289 287 286

GFSNW_925_thetae_015.txt.gz
Theta_e
300 300 301 300 303 304 304 303 306 304 305 307 307 311 310 312 312 313 315 312 310 311 313 312 311 311 312 310 311 312 311 312 311 310 309 309 310 310 310 308 306 308 307 312
299 299 301 299 303 305 304 304 306 305 306 311 310 310 313 313 316 316 315 315 312 311 310 314 312 312 310 311 311 311 311 311 307 314 312 311 312 310 311 310 310 312 313 311
299 299 300 299 302 304 303 302 303 303 305 308 310 312 315 314 314 315 314 313 310 310 313 312 313 313 311 310 312 313 312 313 306 310 309 312 311 313 312 312 316 313 313 312
298 298 298 299 302 304 304 304 306 305 303 309 308 313 314 315 316 314 313 314 313 313 314 313 313 312 311 310 313 312 313 309 309 311 312 312 311 312 312 313 314 316 314 315
297 297 297 298 299 304 304 305 307 305 307 309 311 313 314 316 315 315 313 314 314 314 314 314 313 313 312 311 311 311 310 310 312 310 311 311 312 312 312 312 313 314 315 316
298 297 297 297 298 301 303 302 303 307 307 309 312 312 314 314 314 313 313 314 315 317 315 313 313 312 312 311 312 313 314 311 307 305 312 312 315 314 313 316 317 319 321 318
298 297 296 296 297 297 301 300 301 307 308 309 311 311 312 314 314 314 313 313 316 315 312 313 312 312 313 313 312 311 312 312 308 309 310 314 317 314 317 317 317 316 317 317
298 297 297 296 296 297 297 300 300 304 309 308 309 311 312 311 312 314 314 313 312 312 314 315 317 317 315 315 313 313 313 313 315 314 310 311 315 317 318 318 317 314 316 318
298 297 297 297 296 296 296 301 299 301 306 311 310 312 311 310 311 312 314 313 311 313 315 314 315 319 317 317 317 313 314 314 315 317 316 317 316 315 315 315 320 313 313 317
298 298 297 297 297 296 295 297 298 300 305 306 305 312 312 311 312 312 314 313 313 312 313 316 315 314 316 317 315 318 317 316 317 317 318 314 311 312 313 320 315 313 312 314
297 297 297 297 297 296 295 294 296 298 301 300 302 305 310 309 310 311 311 312 312 312 315 314 315 315 316 315 314 314 315 316 318 317 318 315 310 314 319 314 312 312 311 308
297 297 296 297 296 296 296 295 295 296 298 300 299 299 300 303 306 313 310 314 312 312 314 313 315 316 314 314 316 312 318 312 314 313 312 309 312 313 312 310 310 310 310 305
298 297 296 297 296 296 296 296 295 296 296 298 299 303 306 306 306 310 312 311 311 312 310 312 314 316 314 315 314 317 315 312 316 315 314 312 314 310 308 307 307 307 308 303
296 296 296 297 296 296 297 297 295 295 295 299 301 305 308 311 311 312 313 312 312 311 310 312 313 315 311 314 315 315 314 315 315 314 314 313 311 309 307 306 307 306 305 304
296 296 295 296 296 296 296 295 295 294 295 301 301 299 305 310 311 311 312 312 312 312 314 314 314 313 313 312 312 312 311 313 316 316 315 313 311 308 307 305 305 302 301 300
296 296 296 296 296 296 295 293 297 295 295 297 302 306 309 309 311 311 311 310 312 313 313 313 313 312 312 315 315 312 310 309 311 313 311 309 307 305 304 302 301 299 298 298
296 296 295 295 296 297 294 294 294 296 296 296 302 308 310 309 310 310 311 311 312 312 313 313 313 313 313 315 314 311 310 311 312 311 309 310 306 306 301 300 299 299 296 295
296 295 295 296 296 295 295 294 294 294 294 296 301 308 312 310 313 313 311 312 312 312 313 313 313 312 313 315 312 310 311 310 309 308 307 308 303 300 299 298 297 296 295 293
295 295 296 297 297 296 297 297 296 295 295 300 302 310 313 309 312 311 310 311 314 310 314 313 313 313 315 314 314 312 311 311 312 305 304 302 302 300 298 298 297 296 295 293
295 296 297 298 296 295 296 297 298 296 297 298 304 308 312 311 312 312 314 312 313 313 314 310 313 313 311 305 304 304 302 303 304 307 302 298 297 298 298 298 297 296 294 292
294 294 294 295 295 297 298 300 300 302 303 304 306 310 311 309 311 313 310 309 307 314 311 311 310 314 305 301 300 300 300 300 301 303 305 303 302 300 299 299 298 296 294 291
292 293 294 295 297 297 300 301 302 303 307 307 310 308 309 308 307 310 310 309 308 311 306 309 310 308 300 299 299 299 299 301 301 302 304 304 302 300 299 299 298 295 292 289
294 294 293 296 298 299 303 305 307 307 302 301 302 306 307 305 306 306 308 310 310 302 309 310 304 300 298 297 297 297 298 299 299 300 301 303 302 301 300 297 295 291 290 289
293 293 295 298 301 300 301 301 301 300 299 300 303 304 304 303 306 308 310 308 306 308 309 306 302 297 296 295 295 295 296 296 298 297 297 299 300 299 298 295 292 291 290 289
293 293 294 297 298 297 297 297 298 298 299 300 303 303 305 303 306 306 306 308 308 308 304 302 292 292 293 294 294 294 294 294 295 296 296 296 297 296 294 293 292 292 290 289
292 293 294 296 296 297 289 294 297 297 298 298 299 304 307 308 306 308 308 308 306 299 296 290 291 292 292 292 292 292 292 293 294 294 295 295 294 294 293 293 292 290 289 288
292 293 294 295 295 296 286 292 295 295 298 303 302 306 308 303 308 306 305 307 300 296 295 287 290 290 291 290 290 291 290 291 292 292 293 293 293 291 290 289 288 289 288 287

GFSNW_925_thetae_018.txt.gz
Theta_e
299 299 299 301 304 304 304 301 299 303 304 308 307 309 307 310 313 312 314 310 310 312 312 312 312 312 310 308 309 311 311 309 304 311 309 308 309 309 308 304 304 305 306 310
298 298 299 300 303 305 303 301 302 305 305 310 312 310 313 314 316 315 314 312 310 311 311 312 311 311 309 309 310 310 310 310 306 311 311 310 311 309 309 308 306 303 312 310
298 298 298 299 301 304 303 299 300 301 305 305 310 312 312 314 312 314 312 310 310 311 311 311 313 312 310 311 311 312 311 310 304 308 306 310 308 311 309 310 312 310 311 311
298 297 297 298 300 304 304 301 307 306 306 307 309 311 313 314 315 313 311 312 310 312 313 312 313 311 310 310 314 313 311 307 307 309 310 310 310 311 311 310 311 314 312 313
298 298 297 297 297 303 303 305 306 305 304 307 310 311 313 314 314 313 314 315 314 312 314 313 313 311 310 310 310 311 310 312 311 311 309 310 310 310 310 311 311 312 312 313
298 298 297 297 297 300 301 300 302 306 305 306 309 310 313 314 313 312 313 313 315 315 315 313 311 309 308 309 309 310 310 310 309 304 308 310 312 311 311 311 311 312 318 316
298 298 298 297 297 297 299 300 301 306 307 306 309 310 313 313 313 313 313 313 315 314 311 312 310 310 312 311 311 312 313 309 305 304 308 312 313 310 312 312 314 314 315 316
298 297 298 297 297 296 298 300 299 303 306 307 309 310 312 311 311 313 313 313 312 311 313 313 316 316 314 314 312 312 311 313 306 309 309 311 315 317 317 318 316 314 314 313
299 297 297 297 297 296 294 299 298 300 304 306 307 310 310 309 309 310 314 312 310 312 313 313 314 318 316 318 317 313 312 313 314 315 316 316 312 315 314 314 317 313 311 313
298 297 297 297 297 297 295 296 296 299 304 304 302 309 312 310 308 308 312 312 312 309 311 314 313 312 315 317 316 318 317 316 317 317 317 312 309 310 313 318 314 312 311 311
296 298 296 296 297 296 296 295 295 295 300 299 300 303 307 309 309 309 308 310 310 310 314 312 314 315 315 315 314 315 316 317 319 316 317 314 309 314 318 313 311 312 310 308
296 298 297 297 297 296 296 295 295 294 295 296 298 298 299 301 304 308 309 310 309 309 310 309 313 316 313 312 316 310 317 311 313 313 313 309 309 312 310 309 309 309 309 306
298 296 296 297 297 297 296 295 296 295 293 294 295 296 295 297 299 302 312 309 309 310 307 310 313 314 313 314 313 315 314 311 314 313 313 311 309 308 308 306 306 305 307 303
299 296 296 296 296 296 297 297 296 295 293 295 295 301 300 302 307 303 307 311 310 308 308 310 311 313 311 311 311 314 312 313 315 314 313 312 310 309 307 306 306 306 304 302
297 296 296 296 297 296 297 296 296 295 293 295 296 295 299 305 307 308 311 311 311 310 311 312 313 310 312 312 312 312 309 311 314 314 313 313 312 309 306 305 306 303 302 300
297 296 297 296 296 296 296 293 295 296 295 293 295 298 303 307 309 310 311 311 311 311 313 313 312 311 311 314 314 310 308 309 310 310 309 309 308 306 304 303 302 300 299 298
297 296 296 296 296 297 295 293 294 295 295 295 298 301 306 309 309 309 311 310 310 310 313 313 313 312 313 314 314 311 311 312 311 309 309 309 306 307 302 300 299 299 296 295
296 295 296 296 296 295 295 295 295 294 295 295 298 302 312 310 312 312 310 312 311 312 312 312 313 311 312 314 310 310 310 305 310 307 306 307 303 300 299 297 296 295 294 292
294 296 296 296 296 295 296 296 296 295 295 299 300 305 312 310 312 311 310 312 314 310 313 312 312 313 315 309 304 302 302 302 303 303 303 302 303 300 298 296 295 294 293 292
295 296 296 296 295 295 296 297 297 295 295 295 299 303 311 311 311 312 312 311 314 313 314 311 313 313 308 302 300 298 299 299 299 301 301 299 296 297 297 296 295 295 294 291
293 294 294 294 295 296 298 298 299 301 302 301 302 308 312 308 310 314 311 309 308 312 309 312 310 314 304 299 298 297 297 298 299 298 299 301 302 300 298 296 296 295 293 291
292 293 294 294 296 297 299 300 301 303 306 306 307 308 308 308 307 309 308 307 307 312 306 309 310 307 298 297 296 296 295 296 298 298 299 301 302 300 297 296 297 295 293 290
294 294 293 295 298 299 301 303 305 307 302 301 301 305 305 306 307 306 308 310 310 301 309 309 307 299 296 295 295 294 294 295 296 298 298 299 302 300 299 298 297 294 291 289
293 294 295 297 299 300 301 301 300 300 299 300 302 304 304 302 306 307 309 307 304 308 308 308 301 295 294 293 293 293 293 294 295 296 297 297 299 298 297 295 293 292 290 289
290 293 294 296 295 296 296 296 297 298 298 299 303 303 305 303 306 306 306 308 308 307 303 301 291 290 292 292 292 292 292 292 293 294 296 296 296 296 294 294 293 292 290 289
290 292 293 295 295 296 295 294 295 297 297 297 299 304 307 308 306 308 307 307 306 299 298 290 289 291 291 291 290 291 290 290 291 292 293 294 294 295 294 293 293 292 291 290
290 292 292 292 295 296 292 291 294 294 297 302 301 307 307 303 308 307 305 306 301 297 295 286 288 289 289 289 289 290 290 290 289 289 290 290 292 292 291 290 291 291 290 289

GFSNW_925_thetae_021.txt.gz
Theta_e
299 299 299 300 303 304 303 300 300 303 304 305 306 309 308 310 313 311 313 309 311 312 311 311 311 311 309 307 308 310 310 308 306 311 308 307 308 309 307 304 302 303 304 309
299 299 298 299 301 304 303 300 300 304 305 310 312 310 313 312 314 314 314 310 310 310 310 311 310 310 309 308 308 309 309 306 303 310 310 309 310 308 307 305 303 302 309 309
299 298 298 299 300 303 303 298 301 301 301 305 310 311 311 313 311 313 309 310 310 310 311 309 310 310 310 308 310 312 310 307 304 307 305 307 308 309 308 307 307 308 310 309
299 298 298 298 298 303 303 299 306 305 309 310 311 311 312 313 314 311 310 310 310 311 312 312 312 310 310 311 314 312 309 307 305 308 309 309 310 310 309 307 310 309 310 310
299 299 298 297 297 302 302 303 306 305 305 304 307 309 312 313 313 313 313 312 312 311 312 312 312 310 310 312 310 311 310 312 309 309 308 309 310 309 309 310 310 310 310 311
299 298 298 297 297 299 299 299 301 303 304 304 307 308 311 313 312 312 312 313 313 314 314 312 309 308 307 308 309 309 309 309 309 306 306 308 311 309 310 310 309 310 311 311
300 298 298 298 297 297 299 299 300 304 306 305 307 308 311 312 312 312 312 312 313 313 311 310 309 309 308 308 310 309 312 311 309 303 306 310 310 308 309 310 310 309 310 311
298 298 297 297 298 296 297 298 298 303 305 306 306 309 310 310 310 312 313 313 311 309 311 312 314 315 313 314 311 312 311 312 306 308 309 308 313 315 314 315 315 312 312 312
297 298 297 296 297 297 294 296 296 299 304 303 306 307 308 308 308 308 313 311 309 310 311 311 314 317 315 317 316 312 311 311 313 313 314 313 311 314 313 313 315 312 311 312
297 297 298 296 296 297 295 295 294 296 301 301 302 304 308 307 306 306 310 311 311 308 310 313 313 312 315 316 317 318 316 316 315 315 317 310 308 308 312 317 314 312 311 310
298 297 298 297 296 296 295 295 294 294 295 296 299 301 303 306 307 309 307 309 308 309 311 311 311 313 315 315 314 316 316 316 318 317 317 313 310 313 317 312 310 311 310 309
300 298 296 296 297 297 297 295 295 295 293 292 295 295 296 299 303 304 309 307 307 308 308 307 309 313 313 312 317 310 316 311 312 312 311 308 309 311 310 308 308 308 308 307
298 300 298 296 296 297 297 296 295 295 294 293 292 293 294 295 293 297 304 310 309 308 305 307 310 313 313 315 311 312 311 310 313 312 312 309 309 307 306 307 306 305 303 305
298 299 297 296 296 296 297 297 296 295 293 294 291 294 295 298 296 297 299 305 310 307 306 308 310 311 308 309 309 313 311 311 313 313 311 311 311 308 308 307 305 305 304 302
297 298 297 297 297 297 296 296 295 296 295 292 292 292 292 295 293 301 301 302 310 309 309 310 311 307 309 308 311 310 307 308 311 311 309 311 311 308 307 305 305 304 303 301
297 298 297 297 296 296 295 295 295 295 294 295 291 293 295 301 300 305 305 306 311 311 309 310 310 310 310 311 314 308 308 308 310 310 307 307 306 305 304 304 303 301 301 300
298 298 296 296 296 296 295 293 294 294 294 292 293 295 299 298 308 310 310 310 311 311 312 311 312 312 311 314 314 310 311 308 306 307 304 307 306 307 303 302 300 300 297 297
297 295 296 296 296 296 295 294 295 294 295 295 297 299 303 306 311 312 310 312 311 311 310 310 312 311 312 312 307 303 302 301 302 303 301 303 303 301 300 298 296 296 295 293
294 295 296 296 296 295 295 295 296 295 294 297 299 301 309 309 311 311 311 311 311 309 311 312 312 312 314 307 302 300 300 299 299 299 299 301 302 302 299 297 296 296 294 292
292 295 296 295 295 295 296 296 297 295 296 295 297 299 305 311 311 312 312 312 312 311 312 310 312 312 303 300 299 299 297 296 296 297 299 296 295 296 299 296 295 294 293 291
292 293 293 293 294 295 297 298 299 299 298 300 300 302 312 308 311 313 310 309 308 312 310 313 310 310 303 298 297 295 294 294 295 296 297 297 298 299 300 297 295 294 292 291
292 292 293 294 295 297 299 299 300 302 304 305 304 307 307 308 307 310 308 306 307 311 306 309 310 304 297 295 294 294 293 293 295 296 297 297 298 299 299 297 295 294 293 291
294 294 293 295 297 299 299 300 301 305 302 301 301 305 305 307 306 305 306 309 307 300 308 309 306 297 295 293 292 293 292 293 294 296 297 297 299 300 298 297 296 294 291 290
290 293 294 295 295 297 299 300 295 299 299 300 300 303 305 303 306 307 309 306 305 308 308 307 300 296 293 292 292 292 292 292 292 294 295 296 296 297 297 297 295 293 291 290
288 292 292 291 294 289 296 295 295 297 298 299 301 302 304 304 306 306 306 308 308 307 304 297 296 289 291 291 291 291 291 291 291 291 292 293 295 295 295 294 293 292 291 289
287 288 289 291 291 289 292 290 295 295 297 297 298 303 306 308 305 308 308 307 307 300 297 295 290 291 290 290 289 289 290 290 290 290 290 290 291 292 294 293 293 291 290 289
286 288 291 291 291 292 294 293 294 293 297 302 301 306 307 303 306 305 302 304 301 296 294 286 288 289 289 288 288 288 289 289 288 288 289 289 289 291 292 292 292 292 291 291

GFSNW_925_thetae_027.txt.gz
Theta_e
301 300 300 300 300 303 303 298 302 304 305 306 309 312 310 310 312 311 309 309 309 310 310 310 310 311 309 307 308 310 307 307 311 312 307 307 308 308 305 307 306 305 306 309
301 300 300 299 299 302 302 298 298 304 305 311 311 309 310 310 311 311 311 310 310 308 309 311 309 309 307 307 308 309 308 306 307 312 309 308 309 307 305 302 303 306 310 309
301 300 299 299 299 302 302 297 301 301 301 305 310 310 309 311 309 310 308 309 308 308 309 308 309 309 309 306 308 311 307 306 305 307 306 308 310 308 305 306 307 307 307 307
301 300 299 299 297 301 302 298 305 305 306 305 305 308 310 311 312 310 308 309 309 309 310 311 310 310 310 309 312 308 308 307 304 308 307 307 309 309 307 306 307 308 307 307
300 300 299 298 297 300 300 301 304 304 303 301 304 305 310 312 311 312 311 310 312 309 309 308 310 309 309 310 309 309 307 309 305 304 307 308 309 309 308 308 308 307 308 309
300 299 299 298 297 298 299 299 300 303 302 301 305 305 309 311 310 310 311 311 312 312 312 311 308 306 306 307 308 309 310 309 303 306 306 307 309 308 309 309 307 309 310 309
300 298 299 298 298 295 298 297 299 303 302 301 304 304 305 309 310 311 311 311 313 311 306 306 305 304 305 306 307 307 309 309 306 303 305 309 307 306 307 308 308 307 307 307
300 299 298 298 298 296 295 294 297 301 303 302 302 304 305 305 305 310 311 312 309 307 308 309 310 313 312 311 309 309 309 310 308 308 310 306 311 310 308 310 314 307 308 308
299 299 298 299 298 296 295 294 293 295 298 298 302 304 305 305 304 305 311 310 307 307 308 309 311 310 310 312 314 309 309 308 310 309 310 311 308 313 310 311 317 311 307 308
298 298 299 297 297 298 297 294 294 293 294 295 299 300 304 306 305 303 303 310 310 306 308 311 311 309 308 312 312 316 315 315 315 312 314 309 306 309 311 317 315 310 310 309
298 298 298 299 298 297 297 297 294 294 291 291 293 297 300 299 305 308 304 307 306 307 312 313 312 308 310 309 309 311 312 314 313 311 312 311 307 310 313 311 309 309 308 308
298 298 298 299 298 297 297 297 296 295 293 293 293 293 294 294 295 297 302 307 304 305 306 305 305 309 307 309 315 308 312 308 310 309 308 305 308 311 309 307 307 307 307 306
298 298 297 297 298 298 297 296 296 294 296 295 294 295 294 294 294 294 299 305 308 305 302 304 306 310 306 312 311 309 309 306 309 310 309 307 306 307 306 305 305 306 304 303
299 298 297 297 298 298 297 297 297 296 295 296 294 292 292 293 294 293 295 297 299 297 303 309 309 307 305 306 306 308 307 307 309 309 309 309 308 308 308 308 305 304 302 303
299 298 297 298 299 297 297 297 296 296 295 295 295 293 293 293 294 294 293 293 294 296 303 311 310 304 305 303 305 306 305 308 312 312 308 309 308 307 305 305 305 304 303 302
298 297 298 299 296 297 296 295 294 294 295 293 295 292 290 292 293 293 293 294 296 297 302 311 306 304 306 305 309 306 303 304 307 309 308 306 306 303 303 302 301 301 301 300
297 297 298 295 297 296 295 294 293 294 293 295 290 289 293 297 294 292 292 292 297 300 301 310 307 307 306 307 309 307 304 303 302 302 303 305 305 305 298 298 298 299 299 298
297 297 295 297 296 296 295 294 295 294 293 293 293 290 297 299 301 299 299 299 299 304 306 309 307 308 306 310 306 302 300 299 300 299 298 300 299 299 299 299 297 298 297 296
297 294 293 297 296 294 294 295 295 295 293 293 295 296 298 301 303 304 304 304 305 305 310 311 308 311 312 308 305 301 299 299 298 295 294 295 297 296 298 299 298 297 296 294
294 294 295 296 294 294 294 296 295 295 295 295 295 297 299 301 303 306 306 304 308 308 310 309 312 309 299 297 296 295 295 295 294 296 295 291 291 294 296 297 296 296 295 294
293 291 293 293 293 294 296 298 298 297 297 297 296 298 301 301 306 311 308 308 307 311 311 312 312 312 301 294 294 293 291 292 292 292 293 293 294 295 295 296 295 296 296 293
295 293 293 293 294 295 297 298 299 299 299 303 303 303 302 304 306 308 307 308 306 308 308 311 310 302 293 293 293 291 290 290 293 294 295 296 297 297 296 296 297 298 297 294
293 293 293 294 295 297 298 298 297 301 301 299 299 300 303 306 305 306 306 308 307 301 309 308 300 294 292 292 291 291 290 291 293 293 293 294 295 296 296 296 295 295 293 292
287 288 290 292 293 297 296 295 297 295 297 297 297 301 304 304 305 306 306 304 303 307 308 302 299 292 292 291 291 291 290 290 290 290 291 292 292 293 295 294 295 294 292 291
285 287 288 290 293 291 291 289 294 291 295 295 297 300 303 304 304 306 303 307 308 307 303 294 288 294 292 290 289 290 290 289 289 289 290 290 290 290 291 293 293 293 292 291
284 287 288 289 288 290 288 287 291 294 295 295 296 300 304 306 305 307 307 306 303 302 292 291 293 292 289 289 288 288 289 288 288 288 288 289 288 288 289 291 291 292 292 291
288 285 286 285 284 289 289 291 292 292 295 298 299 304 306 302 305 304 300 303 300 291 292 289 290 289 289 287 287 288 287 285 286 286 287 287 287 288 287 287 287 288 291 291